KUIPER-00126

导读

KUIPER-00126是美国亚马逊低轨星座(原柯伊伯计划)的组网卫星,该星座计划部署3236颗卫星,旨在为全球服务不足地区提供高速宽带互联网服务。这颗卫星于2025年10月14日发射,进入近地轨道,作为星座组网的组成部分,配备相控阵天线与星间激光链路,助力亚马逊构建太空互联网基础设施,推动全球宽带覆盖的普及。

Basic Information
目录编号:
65955
目录名称:
KUIPER-00126
国际标识:
2025-228J
轨道中心:
EARTH
卫星名称:
KUIPER-00126
卫星全名:
KUIPER-00126
卫星状态:
在轨 (已飞行326 天)
发射日期:
2025-10-14 UTC
国别 :
美国 (US)
星等 :
--
Orbit Information
数据来源 国际轨道数据
星历时间: 2026-09-05T19:50:39+0800
5小时前
查看轨道信息
半长轴: 7007.66km
偏心率: 0.0000396
轨道倾角: 51.900°
近地点辐角 81.781°
升交点赤经 285.494°
平近点角 278.319°
近地点: 629.245km
远地点: 629.801km
周期: 97.301分钟
每日圈数: 14.799371
Detailed Information
使用方式:
暂无
2D Orbit Map
3D Orbit Map
Orbit Altitude Analysis Chart
Orbit Inclination Analysis Chart
Orbit Comprehensive Analysis Chart
View Comprehensive Chart